EUTELSAT HOTBIRD 13F

Last updated on Tue Dec 16 2025 00:02:52 GMT+0000 (Coordinated Universal Time)

1 54048U 22134A 25348.91836404 .00000107 00000+0 00000+0 0 9996 2 54048 0.0492 293.4772 0002341 68.5165 65.4415 1.00271390 11520
UTC large
Height (km)
Speed (km/s)
/
Latitude / Longitude
Inclination (degrees)
Orbital Period (minutes)
Azimuth
Elevation
Range (km)
Doppler Factor

Next 0 passes for location: London (51.5072 / 0.1276)

Sorry there are no passes over London.